Location: Newark
(34.6283°N, 36.0776°E)
Time: 02:01:29
(UTC+00:00)

Courier 1B Rocket - Pass Details

Date: 18 September 2019
Orbit: 920 x 1202 km, 28.2° (Epoch: 21 October)

Event Time Altitude Azimuth Distance (km) Brightness Sun altitude
Rises 18:50:16 0° 266° (W) 3,670 8.6 -37.9°
Reaches altitude 10° 18:53:35 10° 252° (WSW) 2,679 7.6 -38.4°
Enters shadow 18:54:57 15° 242° (WSW) 2,343 7.2 -38.6°
